Regional Weather Roundup
Issued by NWS

Home | Current Version | Previous Version | Text Only | Print | Product List | Glossary On
Versions: 1 2 3 4 5 6 7 8 9 10 11 12 13 14 15 16 17 18 19 20 21 22 23 24 25 26 27 28 29 30 31 32 33 34 35 36 37 38 39 40 41 42 43 44 45 46 47 48 49 50
288
ASUS43 KLMK 302310
RWRKY
KENTUCKY REGIONAL WEATHER ROUNDUP
NATIONAL WEATHER SERVICE LOUISVILLE KY
700 PM EDT THU MAR 30 2017

NOTE "FAIR" INDICATES FEW OR NO CLOUDS BELOW 12,000 FEET
WITH NO SIGNIFICANT WEATHER AND/OR OBSTRUCTIONS TO VISIBILITY.

KYZ001>023-026-027-061>063-070>075-310000-
WESTERN AND SOUTH CENTRAL KENTUCKY

CITY           SKY/WX    TMP DP  RH WIND       PRES   REMARKS
PADUCAH        SUNNY     67  49  52 W21G31    29.56R
HENDERSON      CLOUDY    63  55  77 S14       29.56F
OWENSBORO      CLOUDY    72  54  53 S16       29.57S
HOPKINSVILLE   PTSUNNY   73  53  48 SW23G31   29.58F
BOWLING GREEN  CLOUDY    70  56  61 SW10      29.61S
GLASGOW        CLOUDY    74  54  50 S12       29.62F
$$

KYZ024-025-028>034-038-045-046-053-310000-
NORTH CENTRAL KENTUCKY

CITY           SKY/WX    TMP DP  RH WIND       PRES   REMARKS
LOUISVILLE/SDF CLOUDY    77  50  38 S13G28    29.59R
LOUISVILLE/LOU CLOUDY    76  52  43 S12G21    29.59S
FORT KNOX      CLOUDY    73  54  51 S14G23    29.58F
$$

KYZ035>037-039>044-047>052-055>060-089>105-310000-
NORTHEAST KENTUCKY

CITY           SKY/WX    TMP DP  RH WIND       PRES   REMARKS
LEXINGTON      CLOUDY    74  50  42 SW7       29.63S
COVINGTON      CLOUDY    75  52  44 S15G24    29.60S
FRANKFORT      MOSUNNY   76  51  41 SW10G23   29.60F
$$

KYZ054-064>069-076>088-106>120-310000-
SOUTHEAST KENTUCKY

CITY           SKY/WX    TMP DP  RH WIND       PRES   REMARKS
JACKSON        MOCLDY    78  47  33 VRB5      29.69R
LONDON         PTSUNNY   77  42  28 SW15G31   29.69R
SOMERSET       CLOUDY    75  45  33 S10G20    29.68R
MIDDLESBORO    CLOUDY    76  47  35 S18       29.73R
MONTICELLO     CLOUDY    76  53  44 S15G30    29.68R
$$





USA.gov is the U.S. government's official web portal to all federal, state and local government web resources and services.